DW9110 Weather Reports


time (UTC)temp
F
wind
direction
speed
knots
gust
knots
rain 1hr
in
rain 24hr
in
rain mn
in
humidity
%
barometer
mb
20260505011611 77 267 6.1 11.3 0.00 0.00 0.00 54 1001.6
20260505010055 77 252 4.3 11.3 0.00 0.00 0.00 54 1001.2
20260505004605 78 232 2.6 7.0 0.00 0.00 0.00 54 1001.0
20260505003057 78 235 3.5 8.7 0.00 0.00 0.00 53 1000.9
20260505001613 79 225 4.3 11.3 0.00 0.00 0.00 51 1001.0
20260505000107 79 267 4.3 12.2 0.00 0.00 0.00 51 1001.1
20260504234556 80 229 6.1 17.4 0.00 0.00 0.00 49 1001.5
20260504233109 80 251 5.2 19.1 0.00 0.00 0.00 49 1001.0
20260504231550 81 245 9.6 17.4 0.00 0.00 0.00 48 1001.5
20260504230050 81 273 6.1 13.9 0.00 0.00 0.00 47 1001.2
20260504224549 82 223 6.1 17.4 0.00 0.00 0.00 47 1001.1
20260504223049 82 246 7.0 18.2 0.00 0.00 0.00 47 1001.5
20260504221548 81 232 6.1 17.4 0.00 0.00 0.00 48 1001.4
20260504220048 81 259 7.8 15.6 0.00 0.00 0.00 47 1001.5
20260504214547 81 240 7.0 20.0 0.00 0.00 0.00 47 1001.5
20260504213048 81 194 6.1 19.1 0.00 0.00 0.00 48 1001.5
20260504211545 81 232 5.2 18.2 0.00 0.00 0.00 49 1001.6
20260504210043 81 216 9.6 20.0 0.00 0.00 0.00 48 1001.7
20260504204541 81 180 7.0 17.4 0.00 0.00 0.00 48 1001.9
20260504203046 81 243 5.2 12.2 0.00 0.00 0.00 47 1002.1
20260504201537 80 244 5.2 13.9 0.00 0.00 0.00 49 1002.3
20260504200035 80 231 6.1 17.4 0.00 0.00 0.00 47 1002.3
20260504194534 79 249 7.0 13.0 0.00 0.00 0.00 48 1002.6
20260504193031 78 242 7.0 16.5 0.00 0.00 0.00 48 1002.4
20260504191529 78 254 7.8 18.2 0.00 0.00 0.00 50 1002.6
20260504190028 77 184 6.1 18.2 0.00 0.00 0.00 49 1002.7
20260504184527 76 238 7.0 20.9 0.00 0.00 0.00 48 1002.7
20260504183026 78 178 6.1 17.4 0.00 0.00 0.00 47 1003.1
20260504181523 77 159 7.8 19.1 0.00 0.00 0.00 48 1003.4
20260504180021 77 246 6.1 15.6 0.00 0.00 0.00 48 1003.4
20260504174519 76 213 7.0 18.2 0.00 0.00 0.00 49 1003.5
20260504173021 77 256 3.5 10.4 0.00 0.00 0.00 50 1003.7
20260504171519 76 217 4.3 16.5 0.00 0.00 0.00 51 1003.9
20260504160108 67 165 0.0 3.5 0.00 0.00 0.00 68 1004.3
20260504081519 63 252 0.0 5.2 0.00 0.00 0.00 73 1006.4
20260504044609 58 266 0.0 0.0 0.00 0.00 0.00 85 1008.0
20260504043054 58 266 0.0 0.0 0.00 0.00 0.00 84 1008.1
20260504041553 59 266 0.0 0.0 0.00 0.00 0.00 83 1008.2
20260504040104 59 266 0.0 0.0 0.00 0.00 0.00 83 1008.3
20260504034551 60 266 0.0 0.0 0.00 0.00 0.00 82 1008.4
20260504033052 61 266 0.0 0.0 0.00 0.00 0.00 81 1008.6
20260504031550 62 266 0.0 0.9 0.00 0.00 0.00 80 1008.7
20260504030049 62 266 0.0 0.0 0.00 0.00 0.00 79 1008.8
20260504024549 62 266 0.0 0.0 0.00 0.00 0.00 73 1008.9
20260504023048 64 266 0.0 0.0 0.00 0.00 0.00 74 1008.6
20260504021549 65 266 0.0 0.0 0.00 0.00 0.00 71 1008.4
20260504020046 66 266 0.0 0.0 0.00 0.00 0.00 67 1008.5
20260504014546 68 266 0.0 0.0 0.00 0.00 0.00 64 1008.5
20260504013052 71 266 0.0 0.0 0.00 0.00 0.00 58 1008.4